Home > Weather > Charleroi > Past weeks

Flag for Belgium Weather for the Past 2 Weeks in Charleroi, Belgium

Now
39 °F

Sunny.


Feels Like: 32 °F
Forecast: 34 / 61 °F
Wind: 10 mph from North

Location: Charleroi / Gosselies

Current Time: May 1, 2016 at 9:11:58 AM

Latest Report: May 1, 2016 at 8:20 AM


Visibility: 10 mi

Pressure: 30.30 "Hg

Humidity: 87%

Dew Point: 36 °F

Location of CharleroiLocation

Historic Weather in Charleroi — Graph

°F

Charleroi Temperature Yesterday

Maximum temperature yesterday: 48 °F (at 2:20 PM)
Minimum temperature yesterday: 41 °F (at 3:50 AM)
Average temperature yesterday: 44 °F

High & Low Weather Summary for the Past Weeks

 TemperatureHumidityPressure
High66 °F (Apr 21, 3:50 PM)100% (Apr 18, 2:50 AM)30.42 "Hg (Apr 18, 2:50 AM)
Low32 °F (Apr 27, 7:50 AM)35% (Apr 21, 4:20 PM)29.56 "Hg (Apr 16, 7:20 AM)
Average44 °F74%30.01 "Hg
* Reported Apr 16 7:20 AM — May 1 7:20 AM, Charleroi, Weather by CustomWeather, © 2016

Note: Actual official high and low records may vary slightly from our data, if they occured in-between our weather recording intervals... More about our weather records

Advertising

Charleroi Weather History for the Previous 24 Hours

Scroll right to see more
 ConditionsComfort  
Time TempWeatherWind HumidityBarometerVisibility
7:20 AM
Sun, May 1
37 °FSunny.8 mph87%30.30 "Hg10 mi
6:20 AM37 °FClear.9 mph87%30.30 "Hg10 mi
5:50 AM37 °FClear.8 mph87%30.27 "Hg10 mi
5:20 AM37 °FPassing clouds.8 mph87%30.27 "HgN/A
4:20 AM37 °FClear.7 mph87%30.27 "Hg10 mi
3:50 AM37 °FPassing clouds.7 mph87%30.27 "HgN/A
3:20 AM39 °FClear.7 mph87%30.24 "Hg10 mi
2:50 AM39 °FPassing clouds.6 mph81%30.24 "HgN/A
2:20 AM39 °FPassing clouds.7 mph87%30.24 "HgN/A
1:50 AM39 °FClear.7 mph87%30.24 "Hg10 mi
1:20 AM41 °FClear.8 mph81%30.24 "Hg10 mi
12:50 AM41 °FClear.8 mph81%30.24 "Hg10 mi
12:20 AM43 °FClear.8 mph76%30.24 "Hg10 mi
11:50 PM
Sat, Apr 30
43 °FClear.9 mph76%30.24 "Hg10 mi
10:50 PM45 °FPassing clouds.8 mph71%30.21 "HgN/A
10:20 PM45 °FPassing clouds.9 mph71%30.21 "HgN/A
9:50 PM45 °FScattered clouds.8 mph76%30.18 "HgN/A
9:20 PM45 °FPartly sunny.7 mph76%30.18 "HgN/A
8:50 PM45 °FPartly sunny.3 mph71%30.18 "HgN/A
8:20 PM43 °FBroken clouds.6 mph76%30.18 "HgN/A
7:50 PM45 °FBroken clouds.7 mph76%30.15 "HgN/A
7:20 PM45 °FBroken clouds.9 mph76%30.15 "HgN/A
6:50 PM46 °FBroken clouds.6 mph71%30.12 "HgN/A
6:20 PM48 °FSprinkles. Scattered clouds.7 mph66%30.12 "HgN/A
5:50 PM46 °FPassing clouds.6 mph76%30.12 "HgN/A
5:20 PM48 °FPassing clouds.6 mph71%30.12 "HgN/A
4:50 PM46 °FPassing clouds.6 mph76%30.12 "HgN/A
4:20 PM46 °FPassing clouds.6 mph71%30.09 "HgN/A
3:50 PM45 °FSprinkles. Scattered clouds.10 mph81%30.09 "HgN/A
3:20 PM45 °FSprinkles. Scattered clouds.14 mph76%30.09 "HgN/A
2:50 PM46 °FSprinkles. Broken clouds.7 mph71%30.09 "HgN/A
2:20 PM48 °FPartly sunny.7 mph66%30.09 "HgN/A
1:50 PM46 °FPartly sunny.5 mph76%30.09 "HgN/A
1:20 PM46 °FPartly sunny.5 mph76%30.09 "HgN/A
12:50 PM46 °FPartly sunny.3 mph76%30.09 "HgN/A
12:20 PM45 °FPartly sunny.2 mph76%30.09 "HgN/A
11:50 AM43 °FPartly sunny.2 mph81%30.09 "HgN/A
11:20 AM43 °FPartly sunny.3 mph81%30.09 "HgN/A
10:50 AM43 °FPartly sunny.3 mph81%30.07 "HgN/A
10:20 AM43 °FLight rain. Partly sunny.2 mph81%30.07 "HgN/A
9:50 AM41 °FLight rain. Scattered clouds.3 mph87%30.07 "HgN/A
Weather by CustomWeather, © 2016

See weather overviewHow to use our weather pages